Weather History for Charleston, WV

Change the Weather History Date:

Saturday, October 22, 2011

  Actual Average Record
Temperature  
Mean Temperature 50 °F 55 °F  
Max Temperature 62 °F 66 °F 88 °F (1920)
Min Temperature 38 °F 43 °F 23 °F (1952)
Degree Days  
Heating Degree Days 15 11  
Month to date heating degree days 160 174  
Since 1 July heating degree days 199 232  
Cooling Degree Days 0 0  
Month to date cooling degree days 1 16  
Year to date cooling degree days 1367 1089  
Moisture  
Dew Point 38 °F    
Average Humidity 64    
Maximum Humidity 93    
Minimum Humidity 34    
Precipitation  
Precipitation 0.00 in 0.09 in 0.91 in (1983)
Month to date precipitation 3.02 1.83  
Year to date precipitation 41.12 36.19  
Snow  
Snow 0.00 in - - ()
Month to date snowfall 0.0  
Since 1 September snowfall 0.0  
Snow Depth 0.00 in    
Sea Level Pressure  
Sea Level Pressure 30.14 in    
Wind  
Wind Speed 1 mph (WSW)    
Max Wind Speed 10 mph    
Max Gust Speed 14 mph    
Visibility 10 miles    
Events      
T = Trace of Precipitation, MM = Missing Value Source: NWS Daily Summary

Daily Weather History Graph

Daily Weather History Graph

Search for Another Location

Airport:

Trip Planner

Search our weather history database for the weather conditions in past years. The results will help you decide how hot, cold, wet, or windy it might be!

Date:

Astronomy

Oct. 22, 2011 Rise Set
Actual Time 7:41 AM EDT 6:39 PM EDT
Civil Twilight 7:15 AM EDT 7:06 PM EDT
Nautical Twilight 6:44 AM EDT 7:36 PM EDT
Astronomical Twilight 6:13 AM EDT 8:07 PM EDT
Moon 2:41 AM EDT (10/22) 3:53 PM EDT (10/22)
Length of Visible Light 11h 50m
Length of Day
10h 57m
Waning Crescent, 24% of the Moon is Illuminated
Oct 22
Waning Crescent
Oct 26
New
Nov 2
First Quarter
Nov 10
Full
Nov 18
Last Quarter

Hourly Weather History & Observations

Time (EDT) Temp. Dew Point Humidity Pressure Visibility Wind Dir Wind Speed Gust Speed Precip Events Conditions
12:48 AM 41.0 °F 37.4 °F 87% 30.14 in 10.0 mi Calm Calm - N/A   Mostly Cloudy
12:54 AM 41.0 °F 37.9 °F 89% 30.15 in 10.0 mi Calm Calm - N/A   Mostly Cloudy
1:54 AM 42.1 °F 39.0 °F 89% 30.14 in 10.0 mi Calm Calm - N/A   Overcast
2:54 AM 42.8 °F 39.2 °F 87% 30.13 in 10.0 mi Calm Calm - N/A   Overcast
3:54 AM 42.1 °F 39.9 °F 92% 30.13 in 10.0 mi Calm Calm - N/A   Overcast
4:54 AM 41.0 °F 39.0 °F 93% 30.13 in 10.0 mi Calm Calm - N/A   Mostly Cloudy
5:54 AM 39.9 °F 37.0 °F 89% 30.14 in 10.0 mi Calm Calm - N/A   Clear
6:54 AM 39.0 °F 37.0 °F 93% 30.16 in 10.0 mi Calm Calm - N/A   Clear
7:54 AM 39.0 °F 37.0 °F 93% 30.17 in 10.0 mi Calm Calm - N/A   Partly Cloudy
8:35 AM 39.2 °F 37.4 °F 93% 30.17 in 9.0 mi Calm Calm - N/A   Partly Cloudy
8:54 AM 39.0 °F 37.9 °F 96% 30.18 in 10.0 mi Calm Calm - N/A   Partly Cloudy
9:54 AM 44.1 °F 41.0 °F 89% 30.19 in 10.0 mi Calm Calm - N/A   Clear
10:54 AM 50.0 °F 39.9 °F 68% 30.18 in 10.0 mi WSW 3.5 mph - N/A   Clear
11:54 AM 55.0 °F 37.9 °F 53% 30.17 in 10.0 mi Variable 3.5 mph - N/A   Clear
12:54 PM 57.0 °F 36.0 °F 45% 30.15 in 10.0 mi Calm Calm - N/A   Scattered Clouds
1:54 PM 59.0 °F 37.9 °F 46% 30.12 in 10.0 mi WSW 8.1 mph - N/A   Partly Cloudy
2:54 PM 59.0 °F 36.0 °F 42% 30.10 in 10.0 mi West 6.9 mph - N/A   Partly Cloudy
3:54 PM 60.1 °F 35.1 °F 39% 30.10 in 10.0 mi South 4.6 mph - N/A   Clear
4:54 PM 62.1 °F 34.0 °F 35% 30.09 in 10.0 mi Calm Calm - N/A   Clear
5:54 PM 61.0 °F 35.1 °F 38% 30.10 in 10.0 mi West 3.5 mph - N/A   Clear
6:54 PM 55.9 °F 37.0 °F 49% 30.11 in 10.0 mi Calm Calm - N/A   Clear
7:54 PM 51.1 °F 37.9 °F 61% 30.12 in 10.0 mi Calm Calm - N/A   Clear
8:54 PM 48.0 °F 37.9 °F 68% 30.12 in 10.0 mi Calm Calm - N/A   Clear
9:54 PM 45.0 °F 39.0 °F 80% 30.13 in 10.0 mi Calm Calm - N/A   Clear
10:54 PM 43.0 °F 37.9 °F 82% 30.12 in 10.0 mi Calm Calm - N/A   Clear
11:54 PM 42.1 °F 37.9 °F 85% 30.12 in 8.0 mi Calm Calm - N/A   Clear